EW6420 Weather Reports


Display with metric or nautical units.
time (UTC)temp
F
wind
direction
speed
MPH
gust
MPH
rain 1hr
in
rain 24hr
in
rain mn
in
humidity
%
barometer
mb
20260904164502 54 187 0.0 2.0 0.00 0.76 0.14 95 1013.1
20260904163000 54 187 0.0 2.0 0.00 0.76 0.14 95 1013.1
20260904161502 54 187 0.0 0.0 0.00 0.76 0.14 95 1013.1
20260904160005 54 187 0.0 0.0 0.00 0.76 0.14 96 1013.0
20260904153002 53 187 0.0 0.0 0.00 0.76 0.14 95 1012.6
20260904151502 53 187 0.0 0.0 0.00 0.76 0.14 95 1012.5
20260904150002 52 187 0.0 0.0 0.00 0.76 0.14 95 1012.4
20260904144501 52 187 0.0 0.0 0.00 0.76 0.14 95 1012.3
20260904141500 53 187 0.0 0.0 0.00 0.76 0.14 95 1011.9
20260904140006 52 187 0.0 0.0 0.00 0.76 0.14 95 1011.8
20260904134501 53 187 0.0 0.0 0.00 0.82 0.14 95 1011.6
20260904133001 53 187 0.0 0.0 0.00 0.82 0.14 95 1011.5
20260904131502 53 187 0.0 0.0 0.00 0.82 0.14 95 1011.5
20260904124503 53 187 0.0 0.0 0.00 0.86 0.14 95 1011.4
20260904123001 53 187 0.0 0.0 0.01 0.86 0.14 95 1011.2
20260904121502 53 187 0.0 0.0 0.01 0.86 0.14 95 1011.2
20260904120004 53 187 0.0 0.0 0.01 0.86 0.14 95 1011.1
20260904114500 53 187 0.0 0.0 0.01 0.86 0.14 95 1011.0
20260904113002 53 187 0.0 0.0 0.01 0.85 0.13 95 1010.8
20260904111501 53 187 0.0 0.0 0.02 0.85 0.13 95 1010.7
20260904110001 53 187 0.0 0.0 0.03 0.85 0.13 95 1010.6
20260904104501 53 187 0.0 0.0 0.03 0.85 0.13 95 1010.6
20260904103001 53 187 0.0 0.0 0.03 0.84 0.12 95 1010.6
20260904101501 53 187 0.0 0.0 0.05 0.83 0.11 95 1010.5
20260904100005 53 187 0.0 0.0 0.05 0.82 0.10 95 1010.4
20260904094502 53 187 0.0 0.0 0.07 0.82 0.10 94 1010.4
20260904091501 53 187 0.0 0.0 0.04 0.78 0.06 94 1010.4
20260904090002 53 187 0.0 0.0 0.02 0.76 0.04 94 1010.3
20260904084500 53 187 0.0 0.0 0.01 0.75 0.03 94 1010.4
20260904083001 53 187 0.0 0.0 0.00 0.74 0.02 94 1010.3
20260904081501 53 187 0.0 0.0 0.01 0.74 0.02 94 1010.2
20260904080006 53 187 0.0 0.0 0.02 0.74 0.02 94 1010.2
20260904074504 53 187 0.0 0.0 0.02 0.74 0.02 93 1010.4
20260904073002 53 187 0.0 0.0 0.03 0.74 0.02 93 1010.5
20260904071502 53 187 0.0 0.0 0.03 0.73 0.01 93 1010.4
20260904070004 53 187 0.0 0.0 0.02 0.72 0.72 93 1010.3
20260904064502 53 187 0.0 1.0 0.03 0.72 0.72 93 1010.3
20260904063003 54 187 0.0 0.0 0.02 0.71 0.71 93 1010.3
20260904061502 54 187 0.0 0.0 0.01 0.70 0.70 93 1010.3
20260904060006 54 187 0.0 0.0 0.01 0.70 0.70 94 1010.3
20260904054502 54 187 0.0 0.0 0.00 0.69 0.69 94 1010.2
20260904053002 54 187 0.0 0.0 0.00 0.69 0.69 93 1010.1
20260904051503 54 187 0.0 0.0 0.00 0.69 0.69 93 1010.2
20260904050004 54 187 0.0 0.0 0.00 0.69 0.69 93 1010.2
20260904043003 54 187 0.0 0.0 0.00 0.69 0.69 93 1010.2
20260904041504 55 187 0.0 0.0 0.00 0.69 0.69 93 1010.2
20260904034503 55 187 0.0 0.0 0.00 0.69 0.69 93 1010.2
20260904033004 55 187 0.0 0.0 0.00 0.69 0.69 93 1010.0
20260904031502 55 187 0.0 0.0 0.01 0.69 0.69 92 1009.9
20260904030005 55 187 0.0 0.0 0.03 0.69 0.69 92 1009.9
20260904024503 56 187 0.0 2.0 0.15 0.69 0.69 91 1009.8
20260904023002 56 187 0.0 0.0 0.50 0.69 0.69 91 1009.8
20260904021504 56 187 0.0 0.0 0.56 0.68 0.68 90 1009.8
20260904020005 56 187 0.0 0.0 0.55 0.66 0.66 90 1009.9
20260904014502 57 187 0.0 1.0 0.43 0.55 0.54 88 1010.0
20260904013003 58 187 0.0 5.0 0.08 0.20 0.19 84 1009.8
20260904011504 61 122 1.0 4.0 0.01 0.13 0.12 80 1009.4
20260904010006 63 85 0.0 2.0 0.00 0.12 0.11 74 1009.1
20260904004503 63 98 0.0 3.0 0.00 0.18 0.11 71 1009.1
20260904003002 64 90 0.0 3.0 0.00 0.18 0.11 66 1009.0
20260904001503 64 83 1.0 3.0 0.00 0.18 0.11 66 1008.9
20260903234503 64 100 0.0 2.0 0.00 0.18 0.11 70 1009.1
20260903233002 65 158 0.0 1.0 0.00 0.18 0.11 62 1009.0
20260903231502 65 158 0.0 2.0 0.00 0.18 0.11 54 1008.7
20260903224502 66 185 0.0 2.0 0.00 0.24 0.11 52 1008.7
20260903223003 66 185 0.0 2.0 0.00 0.24 0.11 54 1008.8
20260903221507 66 60 0.0 2.0 0.00 0.24 0.11 54 1008.8
20260903220006 65 135 0.0 2.0 0.00 0.30 0.11 56 1008.9
20260903214502 64 186 0.0 2.0 0.00 0.30 0.11 57 1008.9
20260903213001 64 25 0.0 0.0 0.00 0.30 0.11 57 1009.1
20260903211501 64 208 0.0 0.0 0.00 0.30 0.11 58 1009.2
20260903210005 64 208 0.0 2.0 0.00 0.35 0.11 59 1009.1
20260903204502 63 201 0.0 3.0 0.00 0.35 0.11 58 1009.1
20260903201502 63 42 0.0 2.0 0.00 0.35 0.11 68 1009.0
20260903200006 62 212 0.0 2.0 0.00 0.35 0.11 68 1008.9
20260903194501 61 16 0.0 2.0 0.00 0.35 0.11 71 1008.9
20260903193003 61 11 0.0 2.0 0.00 0.35 0.11 73 1008.8
20260903190002 59 212 0.0 2.0 0.00 0.35 0.11 75 1008.9
20260903184503 58 212 0.0 2.0 0.00 0.35 0.11 81 1008.9
20260903183004 58 212 0.0 2.0 0.00 0.35 0.11 81 1009.0
20260903180006 57 212 0.0 2.0 0.00 0.35 0.11 84 1008.8
20260903174501 56 242 0.0 2.0 0.00 0.35 0.11 87 1008.8
20260903173005 56 257 0.0 0.0 0.00 0.35 0.11 91 1008.7
20260903171501 55 257 0.0 2.0 0.00 0.35 0.11 91 1008.8
20260903170002 55 257 0.0 1.0 0.01 0.35 0.11 93 1008.8